TimeEST,TemperatureF,Dew PointF,Humidity,Sea Level PressureIn,VisibilityMPH,Wind Direction,Wind SpeedMPH,Gust SpeedMPH,PrecipitationIn,Events,Conditions,WindDirDegrees,DateUTC
12:53 AM,60.1,55.9,86,30.22,10.0,Calm,Calm,-,N/A,,Clear,0,2012-12-05 05:53:00
1:53 AM,57.9,55.0,90,30.20,10.0,Calm,Calm,-,N/A,,Clear,0,2012-12-05 06:53:00
2:53 AM,57.9,55.9,93,30.19,10.0,Calm,Calm,-,N/A,,Mostly Cloudy,0,2012-12-05 07:53:00
3:53 AM,60.1,55.9,86,30.18,10.0,NE,3.5,-,N/A,,Mostly Cloudy,40,2012-12-05 08:53:00
4:53 AM,60.1,57.0,90,30.17,10.0,Calm,Calm,-,N/A,,Mostly Cloudy,0,2012-12-05 09:53:00
5:53 AM,60.1,57.9,93,30.16,10.0,NNE,3.5,-,N/A,,Overcast,30,2012-12-05 10:53:00
6:53 AM,61.0,57.9,90,30.18,10.0,Calm,Calm,-,N/A,,Overcast,0,2012-12-05 11:53:00
7:53 AM,63.0,57.9,84,30.19,10.0,NNE,4.6,-,N/A,,Overcast,30,2012-12-05 12:53:00
9:53 AM,66.9,60.1,79,30.20,10.0,Calm,Calm,-,N/A,,Partly Cloudy,0,2012-12-05 14:53:00
10:53 AM,73.9,57.9,57,30.19,10.0,ESE,4.6,-,N/A,,Overcast,110,2012-12-05 15:53:00
11:53 AM,75.9,57.9,54,30.17,10.0,SSE,5.8,-,N/A,,Overcast,150,2012-12-05 16:53:00
12:53 PM,77.0,57.9,52,30.13,10.0,Variable,5.8,-,N/A,,Overcast,0,2012-12-05 17:53:00
1:53 PM,78.1,59.0,52,30.11,10.0,North,11.5,-,N/A,,Overcast,10,2012-12-05 18:53:00
3:53 PM,72.0,61.0,68,30.09,10.0,NE,15.0,-,N/A,,Overcast,50,2012-12-05 20:53:00
4:53 PM,70.0,61.0,73,30.09,10.0,NE,10.4,-,N/A,,Mostly Cloudy,40,2012-12-05 21:53:00
5:53 PM,66.9,61.0,81,30.09,10.0,NE,5.8,-,N/A,,Clear,40,2012-12-05 22:53:00
6:53 PM,64.9,60.1,84,30.09,10.0,ENE,8.1,-,N/A,,Scattered Clouds,60,2012-12-05 23:53:00
7:53 PM,66.0,60.1,81,30.10,10.0,ENE,8.1,-,N/A,,Mostly Cloudy,70,2012-12-06 00:53:00
8:53 PM,64.9,60.1,84,30.10,10.0,NE,4.6,-,N/A,,Partly Cloudy,40,2012-12-06 01:53:00
9:53 PM,64.0,61.0,90,30.09,10.0,NE,5.8,-,N/A,,Mostly Cloudy,40,2012-12-06 02:53:00
10:53 PM,61.0,59.0,93,30.10,10.0,Calm,Calm,-,N/A,,Partly Cloudy,0,2012-12-06 03:53:00
11:53 PM,59.0,57.9,96,30.09,10.0,Calm,Calm,-,N/A,,Clear,0,2012-12-06 04:53:00